,,Stat6,,Stat2,,Stat8,,Stat9,,Stat10,,Wind1,,Wind1,
time,status,PA1M_AVG,status,PR1M_SUM,status,RH1M_AVG,status,SR1M_AVG,status,TA1M_AVG,status,W1dAve1m,status,W1sAve1m,
2008-09-24, 00:00:00,VALID,918.474,VALID,0,VALID,100,VALID,-0.152827,VALID,20.1651,VALID,328,VALID,0,
2008-09-24, 00:01:00,VALID,918.461,VALID,0,VALID,100,VALID,-0.118866,VALID,20.1262,VALID,5,VALID,0,
2008-09-24, 00:02:00,VALID,918.458,VALID,0,VALID,100,VALID,-0.118866,VALID,20.1269,VALID,6,VALID,0,
2008-09-24, 00:03:00,VALID,918.442,VALID,0,VALID,100,VALID,-0.118866,VALID,20.1069,VALID,14,VALID,0,
2008-09-24, 00:04:00,VALID,918.399,VALID,0,VALID,100,VALID,-0.0509425,VALID,20.0894,VALID,32,VALID,0.14234,
2008-09-24, 00:05:00,VALID,918.393,VALID,0,VALID,100,VALID,-0.0509425,VALID,20.1157,VALID,33,VALID,0.0406977,
2008-09-24, 00:06:00,VALID,918.366,VALID,0,VALID,100,VALID,-0.0339617,VALID,20.0992,VALID,29,VALID,0,
2008-09-24, 00:07:00,VALID,918.351,VALID,0,VALID,100,VALID,-0.0169808,VALID,20.0797,VALID,27,VALID,0,
2008-09-24, 00:08:00,VALID,918.327,VALID,0,VALID,100,VALID,-0.0169808,VALID,20.06,VALID,27,VALID,0,
2008-09-24, 00:09:00,VALID,918.306,VALID,0,VALID,100,VALID,-0.0339617,VALID,20.0665,VALID,27,VALID,0,
2008-09-24, 00:10:00,VALID,918.29,VALID,0,VALID,100,VALID,-0.0169808,VALID,20.0595,VALID,27,VALID,0,
2008-09-24, 00:11:00,VALID,918.276,VALID,0,VALID,100,VALID,0.0169808,VALID,20.0854,VALID,27,VALID,0,
2008-09-24, 00:12:00,VALID,918.272,VALID,0,VALID,100,VALID,-0.0339617,VALID,20.0887,VALID,27,VALID,0,
2008-09-24, 00:13:00,VALID,918.262,VALID,0,VALID,100,VALID,-0.0169808,VALID,20.0984,VALID,27,VALID,0,
2008-09-24, 00:14:00,VALID,918.258,VALID,0,VALID,100,VALID,-0.0509425,VALID,20.1157,VALID,27,VALID,0,
2008-09-24, 00:15:00,VALID,918.26,VALID,0,VALID,100,VALID,-0.0169808,VALID,20.1081,VALID,27,VALID,0,
2008-09-24, 00:16:00,VALID,918.249,VALID,0,VALID,100,VALID,-0.0679233,VALID,20.1316,VALID,27,VALID,0,
2008-09-24, 00:17:00,VALID,918.228,VALID,0,VALID,100,VALID,0,VALID,20.1306,VALID,27,VALID,0,
2008-09-24, 00:18:00,VALID,918.218,VALID,0,VALID,100,VALID,-0.0339617,VALID,20.1471,VALID,27,VALID,0,
2008-09-24, 00:19:00,VALID,918.222,VALID,0,VALID,100,VALID,-0.0509425,VALID,20.1503,VALID,27,VALID,0,
2008-09-24, 00:20:00,VALID,918.203,VALID,0,VALID,100,VALID,-0.0339617,VALID,20.1473,VALID,27,VALID,0,
2008-09-24, 00:21:00,VALID,918.203,VALID,0,VALID,100,VALID,0,VALID,20.1471,VALID,26,VALID,0,
2008-09-24, 00:22:00,VALID,918.201,VALID,0,VALID,100,VALID,-0.0509425,VALID,20.1214,VALID,23,VALID,0.206641,
2008-09-24, 00:23:00,VALID,918.206,VALID,0,VALID,100,VALID,-0.0169808,VALID,20.1017,VALID,26,VALID,1.45998,
2008-09-24, 00:24:00,VALID,918.207,VALID,0,VALID,100,VALID,-0.0339617,VALID,20.0789,VALID,32,VALID,1.51067,
2008-09-24, 00:25:00,VALID,918.2,VALID,0,VALID,100,VALID,-0.0169808,VALID,20.0959,VALID,22,VALID,1.48775,
2008-09-24, 00:26:00,VALID,918.207,VALID,0,VALID,100,VALID,-0.0169808,VALID,20.0757,VALID,27,VALID,1.80522,
2008-09-24, 00:27:00,VALID,918.195,VALID,0,VALID,100,VALID,-0.0169808,VALID,20.0822,VALID,22,VALID,1.73281,
2008-09-24, 00:28:00,VALID,918.194,VALID,0,VALID,100,VALID,-0.0509425,VALID,20.0857,VALID,23,VALID,1.7153,
2008-09-24, 00:29:00,VALID,918.193,VALID,0,VALID,100,VALID,-0.0509425,VALID,20.0919,VALID,26,VALID,1.60082,
2008-09-24, 00:30:00,VALID,918.172,VALID,0,VALID,100,VALID,-0.0679233,VALID,20.0987,VALID,27,VALID,1.68155,
2008-09-24, 00:31:00,VALID,918.193,VALID,0,VALID,100,VALID,0,VALID,20.0919,VALID,28,VALID,1.74328,
2008-09-24, 00:32:00,VALID,918.206,VALID,0,VALID,100,VALID,-0.0339617,VALID,20.1116,VALID,31,VALID,0.798242,
2008-09-24, 00:33:00,VALID,918.22,VALID,0,VALID,100,VALID,0.0169808,VALID,20.1146,VALID,33,VALID,0,
2008-09-24, 00:34:00,VALID,918.221,VALID,0,VALID,100,VALID,-0.0339617,VALID,20.1341,VALID,38,VALID,0.0926339,
2008-09-24, 00:35:00,VALID,918.21,VALID,0,VALID,100,VALID,-0.0169808,VALID,20.1241,VALID,23,VALID,0.196221,
2008-09-24, 00:36:00,VALID,918.198,VALID,0,VALID,100,VALID,-0.0169808,VALID,20.1309,VALID,31,VALID,0,
2008-09-24, 00:37:00,VALID,918.178,VALID,0,VALID,100,VALID,0,VALID,20.1311,VALID,32,VALID,0.06875,
2008-09-24, 00:38:00,VALID,918.165,VALID,0,VALID,100,VALID,-0.0339617,VALID,20.1311,VALID,23,VALID,0.280506,
2008-09-24, 00:39:00,VALID,918.168,VALID,0,VALID,100,VALID,-0.0339617,VALID,20.1116,VALID,22,VALID,0.00508721,
2008-09-24, 00:40:00,VALID,918.177,VALID,0,VALID,100,VALID,-0.0169808,VALID,20.1214,VALID,38,VALID,0.0310683,
2008-09-24, 00:41:00,VALID,918.179,VALID,0,VALID,100,VALID,0,VALID,20.1341,VALID,23,VALID,0,
2008-09-24, 00:42:00,VALID,918.193,VALID,0,VALID,100,VALID,0,VALID,20.1181,VALID,23,VALID,0.274009,
2008-09-24, 00:43:00,VALID,918.209,VALID,0,VALID,100,VALID,-0.0339617,VALID,20.1246,VALID,37,VALID,0.106831,
2008-09-24, 00:44:00,VALID,918.21,VALID,0,VALID,100,VALID,-0.0169808,VALID,20.1538,VALID,37,VALID,0.00546875,
2008-09-24, 00:45:00,VALID,918.209,VALID,0,VALID,100,VALID,-0.0169808,VALID,20.1214,VALID,46,VALID,0.168423,
2008-09-24, 00:46:00,VALID,918.215,VALID,0,VALID,100,VALID,-0.0169808,VALID,20.1179,VALID,50,VALID,0,
2008-09-24, 00:47:00,VALID,918.194,VALID,0,VALID,100,VALID,0,VALID,20.1341,VALID,49,VALID,0.00116356,
2008-09-24, 00:48:00,VALID,918.19,VALID,0,VALID,100,VALID,-0.0169808,VALID,20.1114,VALID,72,VALID,0.108594,
2008-09-24, 00:49:00,VALID,918.204,VALID,0,VALID,100,VALID,-0.0509425,VALID,20.1092,VALID,357,VALID,0.413132,
2008-09-24, 00:50:00,VALID,918.215,VALID,0,VALID,100,VALID,-0.118866,VALID,20.1129,VALID,356,VALID,0,
2008-09-24, 00:51:00,VALID,918.212,VALID,0,VALID,100,VALID,-0.118866,VALID,20.1129,VALID,227,VALID,0.765459,
2008-09-24, 00:52:00,VALID,918.187,VALID,0,VALID,100,VALID,-0.152827,VALID,20.0745,VALID,317,VALID,1.41946,
2008-09-24, 00:53:00,VALID,918.189,VALID,0,VALID,100,VALID,-0.135847,VALID,20.0188,VALID,296,VALID,1.2984,
2008-09-24, 00:54:00,VALID,918.159,VALID,0,VALID,100,VALID,-0.135847,VALID,20.0123,VALID,112,VALID,0.506177,
2008-09-24, 00:55:00,VALID,918.117,VALID,0,VALID,100,VALID,-0.135847,VALID,19.9636,VALID,47,VALID,1.10826,
2008-09-24, 00:56:00,VALID,918.079,VALID,0,VALID,100,VALID,-0.118866,VALID,19.9609,VALID,320,VALID,0.998958,
2008-09-24, 00:57:00,VALID,918.052,VALID,0,VALID,100,VALID,-0.118866,VALID,19.9734,VALID,39,VALID,0.379954,
2008-09-24, 00:58:00,VALID,918.028,VALID,0,VALID,100,VALID,-0.135847,VALID,19.9864,VALID,6,VALID,1.27885,
2008-09-24, 00:59:00,VALID,918.008,VALID,0,VALID,100,VALID,-0.118866,VALID,19.9342,VALID,24,VALID,1.98438,
2008-09-24, 01:00:00,VALID,918.024,VALID,0,VALID,100,VALID,-0.101885,VALID,19.9085,VALID,24,VALID,0.804506,
2008-09-24, 01:01:00,VALID,918.006,VALID,0,VALID,100,VALID,-0.101885,VALID,19.876,VALID,38,VALID,0.438021,
2008-09-24, 01:02:00,VALID,917.975,VALID,0,VALID,100,VALID,-0.20377,VALID,19.8413,VALID,64,VALID,1.31574,
2008-09-24, 01:03:00,VALID,917.956,VALID,0,VALID,100,VALID,-0.101885,VALID,19.7852,VALID,29,VALID,1.07049,
2008-09-24, 01:04:00,VALID,917.927,VALID,0,VALID,100,VALID,-0.0679233,VALID,19.7812,VALID,11,VALID,0.728646,
2008-09-24, 01:05:00,VALID,917.907,VALID,0,VALID,100,VALID,0,VALID,19.738,VALID,38,VALID,0.581174,
2008-09-24, 01:06:00,VALID,917.887,VALID,0,VALID,100,VALID,0,VALID,19.719,VALID,26,VALID,1.01181,
2008-09-24, 01:07:00,VALID,917.906,VALID,0,VALID,100,VALID,-0.0339617,VALID,19.6996,VALID,17,VALID,0.727083,
2008-09-24, 01:08:00,VALID,917.906,VALID,0,VALID,100,VALID,-0.0339617,VALID,19.6509,VALID,37,VALID,0,
2008-09-24, 01:09:00,VALID,917.916,VALID,0,VALID,100,VALID,-0.0339617,VALID,19.6247,VALID,43,VALID,0.000558036,
2008-09-24, 01:10:00,VALID,917.936,VALID,0,VALID,100,VALID,0,VALID,19.6539,VALID,304,VALID,0.182091,
2008-09-24, 01:11:00,VALID,917.932,VALID,0,VALID,100,VALID,-0.0169808,VALID,19.6409,VALID,2,VALID,0.330785,
2008-09-24, 01:12:00,VALID,917.948,VALID,0,VALID,100,VALID,-0.0169808,VALID,19.6312,VALID,307,VALID,0.00133384,
2008-09-24, 01:13:00,VALID,917.958,VALID,0,VALID,100,VALID,-0.0509425,VALID,19.589,VALID,266,VALID,0,
2008-09-24, 01:14:00,VALID,917.969,VALID,0,VALID,100,VALID,-0.0169808,VALID,19.5501,VALID,266,VALID,0,
2008-09-24, 01:15:00,VALID,917.953,VALID,0,VALID,100,VALID,0,VALID,19.5016,VALID,254,VALID,0,
2008-09-24, 01:16:00,VALID,917.923,VALID,0,VALID,100,VALID,-0.0339617,VALID,19.4757,VALID,187,VALID,0,
2008-09-24, 01:17:00,VALID,917.883,VALID,0,VALID,100,VALID,-0.0339617,VALID,19.4365,VALID,92,VALID,0,
2008-09-24, 01:18:00,VALID,917.851,VALID,0,VALID,100,VALID,-0.0169808,VALID,19.4432,VALID,80,VALID,0,
2008-09-24, 01:19:00,VALID,917.81,VALID,0,VALID,100,VALID,-0.0849042,VALID,19.4208,VALID,97,VALID,0.366997,
2008-09-24, 01:20:00,VALID,917.752,VALID,0,VALID,100,VALID,-0.0849042,VALID,19.3976,VALID,31,VALID,0.181504,
2008-09-24, 01:21:00,VALID,917.733,VALID,0,VALID,100,VALID,-0.0509425,VALID,19.4143,VALID,26,VALID,0,
2008-09-24, 01:22:00,VALID,917.718,VALID,0,VALID,100,VALID,-0.0849042,VALID,19.4118,VALID,27,VALID,0,
2008-09-24, 01:23:00,VALID,917.679,VALID,0,VALID,100,VALID,-0.101885,VALID,19.3728,VALID,27,VALID,0,
2008-09-24, 01:24:00,VALID,917.67,VALID,0,VALID,100,VALID,-0.101885,VALID,19.3272,VALID,27,VALID,0,
2008-09-24, 01:25:00,VALID,917.641,VALID,0,VALID,100,VALID,-0.0849042,VALID,19.3202,VALID,38,VALID,0.612038,
2008-09-24, 01:26:00,VALID,917.621,VALID,0,VALID,100,VALID,-0.0509425,VALID,19.2938,VALID,37,VALID,0.807478,
2008-09-24, 01:27:00,VALID,917.588,VALID,0,VALID,100,VALID,-0.0509425,VALID,19.294,VALID,37,VALID,0.356831,
2008-09-24, 01:28:00,VALID,917.545,VALID,0,VALID,100,VALID,-0.0679233,VALID,19.2713,VALID,37,VALID,0,
2008-09-24, 01:29:00,VALID,917.499,VALID,0,VALID,100,VALID,-0.0509425,VALID,19.2486,VALID,95,VALID,0.105469,
2008-09-24, 01:30:00,VALID,917.433,VALID,0,VALID,100,VALID,-0.0679233,VALID,19.2259,VALID,142,VALID,0.0503906,
2008-09-24, 01:31:00,VALID,917.402,VALID,0,VALID,100,VALID,-0.0849042,VALID,19.1812,VALID,142,VALID,0,
2008-09-24, 01:32:00,VALID,917.382,VALID,0,VALID,100,VALID,-0.118866,VALID,19.152,VALID,142,VALID,0,
2008-09-24, 01:33:00,VALID,917.379,VALID,0,VALID,100,VALID,-0.101885,VALID,19.1195,VALID,123,VALID,0,
2008-09-24, 01:34:00,VALID,917.362,VALID,0,VALID,100,VALID,-0.0169808,VALID,19.1028,VALID,117,VALID,0,
2008-09-24, 01:35:00,VALID,917.375,VALID,0,VALID,100,VALID,-0.0339617,VALID,19.0669,VALID,105,VALID,0,
2008-09-24, 01:36:00,VALID,917.365,VALID,0,VALID,100,VALID,-0.0679233,VALID,19.0507,VALID,94,VALID,0,
2008-09-24, 01:37:00,VALID,917.345,VALID,0,VALID,100,VALID,-0.0849042,VALID,19.031,VALID,85,VALID,0.0574777,
2008-09-24, 01:38:00,VALID,917.32,VALID,0,VALID,100,VALID,-0.0849042,VALID,19.0213,VALID,101,VALID,0.0216206,
2008-09-24, 01:39:00,VALID,917.289,VALID,0,VALID,100,VALID,-0.0169808,VALID,19.0018,VALID,102,VALID,1.00454,
2008-09-24, 01:40:00,VALID,917.247,VALID,0,VALID,100,VALID,-0.0679233,VALID,18.9888,VALID,96,VALID,0.740234,
2008-09-24, 01:41:00,VALID,917.197,VALID,0,VALID,100,VALID,-0.0509425,VALID,18.9856,VALID,90,VALID,0.923874,
2008-09-24, 01:42:00,VALID,917.137,VALID,0,VALID,100,VALID,-0.0679233,VALID,18.9758,VALID,75,VALID,1.04506,
2008-09-24, 01:43:00,VALID,917.091,VALID,0,VALID,100,VALID,-0.118866,VALID,19.0025,VALID,58,VALID,1.11621,
2008-09-24, 01:44:00,VALID,917.069,VALID,0,VALID,100,VALID,-0.0679233,VALID,19.022,VALID,47,VALID,0.563058,
2008-09-24, 01:45:00,VALID,917.071,VALID,0,VALID,100,VALID,-0.0339617,VALID,19.018,VALID,67,VALID,0.672061,
2008-09-24, 01:46:00,VALID,917.063,VALID,0,VALID,100,VALID,-0.0509425,VALID,18.9791,VALID,106,VALID,1.14243,
2008-09-24, 01:47:00,VALID,917.06,VALID,0,VALID,100,VALID,-0.0679233,VALID,18.9986,VALID,121,VALID,0.636814,
2008-09-24, 01:48:00,VALID,917.086,VALID,0,VALID,100,VALID,-0.0679233,VALID,19.0018,VALID,143,VALID,0.803906,
2008-09-24, 01:49:00,VALID,917.089,VALID,0,VALID,100,VALID,-0.0509425,VALID,19.0118,VALID,156,VALID,0.77077,
2008-09-24, 01:50:00,VALID,917.075,VALID,0,VALID,100,VALID,-0.0679233,VALID,19.0217,VALID,170,VALID,1.00234,
2008-09-24, 01:51:00,VALID,917.043,VALID,0,VALID,100,VALID,-0.101885,VALID,19.0282,VALID,173,VALID,0.729911,
2008-09-24, 01:52:00,VALID,917.033,VALID,0,VALID,100,VALID,-0.0679233,VALID,19.031,VALID,164,VALID,0.420673,
2008-09-24, 01:53:00,VALID,917.004,VALID,0,VALID,100,VALID,-0.0849042,VALID,19.0345,VALID,164,VALID,0.264509,
2008-09-24, 01:54:00,VALID,917.012,VALID,0,VALID,100,VALID,-0.0849042,VALID,19.0375,VALID,164,VALID,0.198879,
2008-09-24, 01:55:00,VALID,917.008,VALID,0,VALID,100,VALID,-0.0509425,VALID,19.0505,VALID,174,VALID,0.476563,
2008-09-24, 01:56:00,VALID,916.981,VALID,0,VALID,100,VALID,-0.0339617,VALID,19.0602,VALID,179,VALID,0,
2008-09-24, 01:57:00,VALID,916.971,VALID,0,VALID,100,VALID,-0.0339617,VALID,19.0634,VALID,175,VALID,0.169779,
2008-09-24, 01:58:00,VALID,916.945,VALID,0,VALID,100,VALID,-0.0849042,VALID,19.0834,VALID,174,VALID,1.21076,
2008-09-24, 01:59:00,VALID,916.921,VALID,0,VALID,100,VALID,-0.101885,VALID,19.0732,VALID,172,VALID,0.826308,
2008-09-24, 02:00:00,VALID,916.887,VALID,0,VALID,100,VALID,-0.0169808,VALID,19.0924,VALID,166,VALID,0.408203,
2008-09-24, 02:01:00,VALID,916.871,VALID,0,VALID,100,VALID,-0.0169808,VALID,19.0764,VALID,149,VALID,0,
2008-09-24, 02:02:00,VALID,916.835,VALID,0,VALID,100,VALID,-0.0509425,VALID,19.047,VALID,139,VALID,0,
2008-09-24, 02:03:00,VALID,916.794,VALID,0,VALID,100,VALID,-0.0339617,VALID,19.0407,VALID,116,VALID,0,
2008-09-24, 02:04:00,VALID,916.772,VALID,0,VALID,100,VALID,0.0169808,VALID,19.0298,VALID,93,VALID,0,
2008-09-24, 02:05:00,VALID,916.757,VALID,0,VALID,100,VALID,0.0339617,VALID,19.0293,VALID,95,VALID,0,
2008-09-24, 02:06:00,VALID,916.74,VALID,0,VALID,100,VALID,0.0509425,VALID,19.0293,VALID,110,VALID,0,
2008-09-24, 02:07:00,VALID,916.737,VALID,0,VALID,100,VALID,0.0339617,VALID,19.0358,VALID,110,VALID,0,
2008-09-24, 02:08:00,VALID,916.723,VALID,0,VALID,100,VALID,0.0339617,VALID,19.0161,VALID,104,VALID,0,
2008-09-24, 02:09:00,VALID,916.727,VALID,0,VALID,100,VALID,0.0169808,VALID,19.0103,VALID,102,VALID,0,
2008-09-24, 02:10:00,VALID,916.708,VALID,0,VALID,100,VALID,0.0339617,VALID,19.0004,VALID,120,VALID,0.176736,
2008-09-24, 02:11:00,VALID,916.696,VALID,0,VALID,100,VALID,0.0509425,VALID,18.9971,VALID,151,VALID,0.0182927,
2008-09-24, 02:12:00,VALID,916.717,VALID,0,VALID,100,VALID,0.0509425,VALID,18.9839,VALID,158,VALID,0.000762195,
2008-09-24, 02:13:00,VALID,916.726,VALID,0,VALID,100,VALID,0.0169808,VALID,18.9934,VALID,159,VALID,0,
2008-09-24, 02:14:00,VALID,916.71,VALID,0,VALID,100,VALID,0.0849042,VALID,19.0001,VALID,173,VALID,0,
2008-09-24, 02:15:00,VALID,916.692,VALID,0,VALID,100,VALID,0.0849042,VALID,19.0228,VALID,173,VALID,0,
2008-09-24, 02:16:00,VALID,916.672,VALID,0,VALID,100,VALID,0.0679233,VALID,19.0228,VALID,168,VALID,0.0563227,
2008-09-24, 02:17:00,VALID,916.668,VALID,0,VALID,100,VALID,0.0339617,VALID,19.0291,VALID,162,VALID,0,
2008-09-24, 02:18:00,VALID,916.683,VALID,0,VALID,100,VALID,0.0339617,VALID,19.0523,VALID,162,VALID,0,
2008-09-24, 02:19:00,VALID,916.688,VALID,0,VALID,100,VALID,-0.0509425,VALID,19.0724,VALID,162,VALID,0,
2008-09-24, 02:20:00,VALID,916.719,VALID,0,VALID,100,VALID,-0.0679233,VALID,19.0796,VALID,159,VALID,0,
2008-09-24, 02:21:00,VALID,916.736,VALID,0,VALID,100,VALID,-0.0169808,VALID,19.0827,VALID,42,VALID,0,
2008-09-24, 02:22:00,VALID,916.736,VALID,0,VALID,100,VALID,-0.0849042,VALID,19.0732,VALID,36,VALID,0.0209604,
2008-09-24, 02:23:00,VALID,916.728,VALID,0,VALID,100,VALID,-0.0509425,VALID,19.0372,VALID,52,VALID,0.0174851,
2008-09-24, 02:24:00,VALID,916.736,VALID,0,VALID,100,VALID,-0.0679233,VALID,18.9659,VALID,62,VALID,0.397879,
2008-09-24, 02:25:00,VALID,916.748,VALID,0,VALID,100,VALID,-0.0339617,VALID,18.894,VALID,68,VALID,1.48056,
2008-09-24, 02:26:00,VALID,916.762,VALID,0,VALID,100,VALID,-0.0169808,VALID,18.8618,VALID,65,VALID,1.44822,
2008-09-24, 02:27:00,VALID,916.778,VALID,0,VALID,100,VALID,-0.0679233,VALID,18.8391,VALID,80,VALID,1.26744,
2008-09-24, 02:28:00,VALID,916.81,VALID,0,VALID,100,VALID,-0.0509425,VALID,18.8234,VALID,67,VALID,1.39026,
2008-09-24, 02:29:00,VALID,916.864,VALID,0,VALID,100,VALID,-0.0169808,VALID,18.8134,VALID,69,VALID,1.11009,
2008-09-24, 02:30:00,VALID,916.887,VALID,0,VALID,100,VALID,-0.0339617,VALID,18.8099,VALID,63,VALID,1.34102,
2008-09-24, 02:31:00,VALID,916.916,VALID,0,VALID,100,VALID,-0.0679233,VALID,18.8169,VALID,72,VALID,0.155185,
2008-09-24, 02:32:00,VALID,916.899,VALID,0,VALID,100,VALID,-0.0509425,VALID,18.8199,VALID,86,VALID,0.919969,
2008-09-24, 02:33:00,VALID,916.914,VALID,0,VALID,100,VALID,-0.0339617,VALID,18.8264,VALID,63,VALID,0.732617,
2008-09-24, 02:34:00,VALID,916.9,VALID,0,VALID,100,VALID,-0.0679233,VALID,18.8364,VALID,48,VALID,1.02284,
2008-09-24, 02:35:00,VALID,916.904,VALID,0,VALID,100,VALID,-0.0169808,VALID,18.8526,VALID,48,VALID,0.552144,
2008-09-24, 02:36:00,VALID,916.906,VALID,0,VALID,100,VALID,-0.0169808,VALID,18.8686,VALID,57,VALID,1.30905,
2008-09-24, 02:37:00,VALID,916.913,VALID,0,VALID,100,VALID,-0.0849042,VALID,18.8913,VALID,36,VALID,1.07012,
2008-09-24, 02:38:00,VALID,916.899,VALID,0,VALID,100,VALID,-0.0509425,VALID,18.8978,VALID,28,VALID,0.0727983,
2008-09-24, 02:39:00,VALID,916.892,VALID,0,VALID,100,VALID,-0.0509425,VALID,18.9042,VALID,29,VALID,0,
2008-09-24, 02:40:00,VALID,916.873,VALID,0,VALID,100,VALID,-0.0339617,VALID,18.888,VALID,51,VALID,0.339367,
2008-09-24, 02:41:00,VALID,916.848,VALID,0,VALID,100,VALID,-0.0169808,VALID,18.8818,VALID,59,VALID,0.0120046,
2008-09-24, 02:42:00,VALID,916.813,VALID,0,VALID,100,VALID,-0.0849042,VALID,18.8646,VALID,59,VALID,0,
2008-09-24, 02:43:00,VALID,916.777,VALID,0,VALID,100,VALID,-0.0339617,VALID,18.875,VALID,96,VALID,0.0307049,
2008-09-24, 02:44:00,VALID,916.721,VALID,0,VALID,100,VALID,-0.0339617,VALID,18.8878,VALID,145,VALID,0.753534,
2008-09-24, 02:45:00,VALID,916.675,VALID,0,VALID,100,VALID,-0.0169808,VALID,18.8753,VALID,159,VALID,1.21172,
2008-09-24, 02:46:00,VALID,916.64,VALID,0,VALID,100,VALID,-0.0679233,VALID,18.8553,VALID,162,VALID,1.33278,
2008-09-24, 02:47:00,VALID,916.625,VALID,0,VALID,100,VALID,-0.0339617,VALID,18.8653,VALID,165,VALID,1.58249,
2008-09-24, 02:48:00,VALID,916.622,VALID,0,VALID,100,VALID,-0.0169808,VALID,18.8681,VALID,158,VALID,1.39735,
2008-09-24, 02:49:00,VALID,916.635,VALID,0,VALID,100,VALID,-0.0169808,VALID,18.8683,VALID,137,VALID,0.222222,
2008-09-24, 02:50:00,VALID,916.647,VALID,0,VALID,100,VALID,-0.0169808,VALID,18.8591,VALID,133,VALID,1.2056,
2008-09-24, 02:51:00,VALID,916.679,VALID,0,VALID,100,VALID,-0.0169808,VALID,18.8558,VALID,133,VALID,1.02207,
2008-09-24, 02:52:00,VALID,916.696,VALID,0,VALID,100,VALID,-0.0509425,VALID,18.8493,VALID,129,VALID,1.42488,
2008-09-24, 02:53:00,VALID,916.716,VALID,0,VALID,100,VALID,-0.0169808,VALID,18.8456,VALID,118,VALID,1.29467,
2008-09-24, 02:54:00,VALID,916.7,VALID,0,VALID,100,VALID,-0.0509425,VALID,18.8491,VALID,123,VALID,1.24833,
2008-09-24, 02:55:00,VALID,916.67,VALID,0,VALID,100,VALID,-0.0339617,VALID,18.8461,VALID,103,VALID,0.810213,
2008-09-24, 02:56:00,VALID,916.636,VALID,0,VALID,100,VALID,-0.0509425,VALID,18.8394,VALID,80,VALID,0.836509,
2008-09-24, 02:57:00,VALID,916.605,VALID,0,VALID,100,VALID,-0.0169808,VALID,18.8199,VALID,102,VALID,0.152514,
2008-09-24, 02:58:00,VALID,916.568,VALID,0,VALID,100,VALID,-0.0339617,VALID,18.8164,VALID,95,VALID,0,
2008-09-24, 02:59:00,VALID,916.522,VALID,0,VALID,100,VALID,-0.0509425,VALID,18.8099,VALID,104,VALID,0,
2008-09-24, 03:00:00,VALID,916.487,VALID,0,VALID,100,VALID,-0.0509425,VALID,18.8201,VALID,123,VALID,0.232922,
2008-09-24, 03:01:00,VALID,916.43,VALID,0,VALID,100,VALID,-0.0339617,VALID,18.8167,VALID,124,VALID,0.340972,
2008-09-24, 03:02:00,VALID,916.369,VALID,0,VALID,100,VALID,-0.0339617,VALID,18.8102,VALID,122,VALID,0,
2008-09-24, 03:03:00,VALID,916.294,VALID,0,VALID,100,VALID,-0.0339617,VALID,18.79,VALID,112,VALID,0,
2008-09-24, 03:04:00,VALID,916.242,VALID,0,VALID,100,VALID,0,VALID,18.7872,VALID,75,VALID,0.00109012,
2008-09-24, 03:05:00,VALID,916.193,VALID,0,VALID,100,VALID,0,VALID,18.7909,VALID,76,VALID,0,
2008-09-24, 03:06:00,VALID,916.18,VALID,0,VALID,100,VALID,0,VALID,18.774,VALID,91,VALID,0,
2008-09-24, 03:07:00,VALID,916.17,VALID,0,VALID,100,VALID,0,VALID,18.764,VALID,100,VALID,0,
2008-09-24, 03:08:00,VALID,916.189,VALID,0,VALID,100,VALID,0,VALID,18.771,VALID,112,VALID,0,
2008-09-24, 03:09:00,VALID,916.234,VALID,0,VALID,100,VALID,-0.0339617,VALID,18.7608,VALID,131,VALID,1.10302,
2008-09-24, 03:10:00,VALID,916.304,VALID,0,VALID,100,VALID,-0.0169808,VALID,18.777,VALID,141,VALID,1.62936,
2008-09-24, 03:11:00,VALID,916.346,VALID,0,VALID,100,VALID,0,VALID,18.8069,VALID,146,VALID,1.97168,
2008-09-24, 03:12:00,VALID,916.396,VALID,0,VALID,100,VALID,0,VALID,18.8167,VALID,147,VALID,1.50941,
2008-09-24, 03:13:00,VALID,916.428,VALID,0,VALID,100,VALID,0,VALID,18.8227,VALID,153,VALID,1.44303,
2008-09-24, 03:14:00,VALID,916.425,VALID,0,VALID,100,VALID,0.0169808,VALID,18.8461,VALID,163,VALID,0.941497,
2008-09-24, 03:15:00,VALID,916.416,VALID,0,VALID,100,VALID,-0.0169808,VALID,18.8558,VALID,170,VALID,1.04342,
2008-09-24, 03:16:00,VALID,916.391,VALID,0,VALID,100,VALID,0,VALID,18.8558,VALID,183,VALID,0.706055,
2008-09-24, 03:17:00,VALID,916.341,VALID,0,VALID,100,VALID,-0.0169808,VALID,18.8426,VALID,171,VALID,0.0267578,
2008-09-24, 03:18:00,VALID,916.282,VALID,0,VALID,100,VALID,0,VALID,18.8262,VALID,182,VALID,1.0387,
2008-09-24, 03:19:00,VALID,916.231,VALID,0,VALID,100,VALID,0.0169808,VALID,18.8292,VALID,188,VALID,0.581692,
2008-09-24, 03:20:00,VALID,916.149,VALID,0,VALID,100,VALID,-0.0339617,VALID,18.8459,VALID,189,VALID,0,
2008-09-24, 03:21:00,VALID,916.094,VALID,0,VALID,100,VALID,-0.0169808,VALID,18.8588,VALID,189,VALID,0,
2008-09-24, 03:22:00,VALID,916.053,VALID,0,VALID,100,VALID,-0.0169808,VALID,18.8688,VALID,189,VALID,0,
2008-09-24, 03:23:00,VALID,916.02,VALID,0,VALID,100,VALID,-0.0169808,VALID,18.8646,VALID,189,VALID,0,
2008-09-24, 03:24:00,VALID,916.013,VALID,0,VALID,100,VALID,-0.0169808,VALID,18.8748,VALID,189,VALID,0,
2008-09-24, 03:25:00,VALID,916.028,VALID,0,VALID,100,VALID,-0.0169808,VALID,18.8653,VALID,189,VALID,0,
2008-09-24, 03:26:00,VALID,916.069,VALID,0,VALID,100,VALID,0,VALID,18.8584,VALID,189,VALID,0,
2008-09-24, 03:27:00,VALID,916.095,VALID,0,VALID,100,VALID,0,VALID,18.8716,VALID,189,VALID,0,
2008-09-24, 03:28:00,VALID,916.133,VALID,0,VALID,100,VALID,0,VALID,18.8783,VALID,189,VALID,0,
2008-09-24, 03:29:00,VALID,916.165,VALID,0,VALID,100,VALID,-0.0169808,VALID,18.875,VALID,189,VALID,0,
2008-09-24, 03:30:00,VALID,916.202,VALID,0,VALID,100,VALID,-0.0169808,VALID,18.8546,VALID,189,VALID,0,
2008-09-24, 03:31:00,VALID,916.216,VALID,0,VALID,100,VALID,-0.0169808,VALID,18.8516,VALID,189,VALID,0,
2008-09-24, 03:32:00,VALID,916.225,VALID,0,VALID,100,VALID,0,VALID,18.8519,VALID,189,VALID,0,
2008-09-24, 03:33:00,VALID,916.228,VALID,0,VALID,100,VALID,0,VALID,18.8581,VALID,160,VALID,0.0377604,
2008-09-24, 03:34:00,VALID,916.25,VALID,0,VALID,100,VALID,0,VALID,18.8551,VALID,177,VALID,0.0385045,
2008-09-24, 03:35:00,VALID,916.276,VALID,0,VALID,100,VALID,-0.0169808,VALID,18.8753,VALID,178,VALID,0,
2008-09-24, 03:36:00,VALID,916.286,VALID,0,VALID,100,VALID,0,VALID,18.8681,VALID,178,VALID,0,
2008-09-24, 03:37:00,VALID,916.28,VALID,0,VALID,100,VALID,0,VALID,18.8676,VALID,178,VALID,0,
2008-09-24, 03:38:00,VALID,916.283,VALID,0,VALID,100,VALID,0,VALID,18.888,VALID,178,VALID,0,
2008-09-24, 03:39:00,VALID,916.286,VALID,0,VALID,100,VALID,-0.0169808,VALID,18.8908,VALID,178,VALID,0,
2008-09-24, 03:40:00,VALID,916.258,VALID,0,VALID,100,VALID,-0.0169808,VALID,18.9072,VALID,178,VALID,0,
2008-09-24, 03:41:00,VALID,916.242,VALID,0,VALID,100,VALID,0,VALID,18.92,VALID,147,VALID,0.0125,
2008-09-24, 03:42:00,VALID,916.232,VALID,0,VALID,100,VALID,-0.0169808,VALID,18.9332,VALID,58,VALID,0.406795,
2008-09-24, 03:43:00,VALID,916.22,VALID,0,VALID,100,VALID,-0.0169808,VALID,18.9295,VALID,58,VALID,0,
2008-09-24, 03:44:00,VALID,916.209,VALID,0,VALID,100,VALID,0,VALID,18.9302,VALID,58,VALID,0,